Change the Weather History Date:

Friday, April 25, 2014

  Actual Average Record
Temperature  
Mean Temperature 52 °F -  
Max Temperature 66 °F 57 °F 81 °F (1957)
Min Temperature 37 °F 38 °F 26 °F (1999)
Degree Days  
Heating Degree Days 14    
Growing Degree Days 2 (Base 50)    
Moisture  
Dew Point 33 °F    
Average Humidity 66    
Maximum Humidity 97    
Minimum Humidity 22    
Precipitation  
Precipitation 0.19 in - - ()
Sea Level Pressure  
Sea Level Pressure 29.76 in    
Wind  
Wind Speed 10 mph (SW)    
Max Wind Speed 20 mph    
Max Gust Speed 33 mph    
Visibility 7 miles    
Events Rain    
Averages and records for this station are not official NWS values.
T = Trace of Precipitation, MM = Missing Value Source: NWS Daily Summary

Daily Weather History Graph

Daily Weather History Graph

Search for Another Location

Airport or City:

Trip Planner

Search our weather history database for the weather conditions in past years. The results will help you decide how hot, cold, wet, or windy it might be!

Date:

Astronomy

Apr. 25, 2014 Rise Set
Actual Time 6:20 AM EDT 8:10 PM EDT
Civil Twilight 5:50 AM EDT 8:40 PM EDT
Nautical Twilight 5:13 AM EDT 9:17 PM EDT
Astronomical Twilight 4:34 AM EDT 9:57 PM EDT
Moon 4:12 AM EDT (4/25) 4:26 PM EDT (4/25)
Length of Visible Light 14h 50m
Length of Day
13h 49m
Waning Crescent, 15% of the Moon is Illuminated
Apr 25
Waning Crescent
Apr 29
New
May 6
First Quarter
May 14
Full
May 21
Last Quarter

Hourly Weather History & Observations

Time (EDT) Temp. Windchill Dew Point Humidity Pressure Visibility Wind Dir Wind Speed Gust Speed Precip Events Conditions
12:53 AM 44.1 °F 38.6 °F 19.9 °F 38% 29.98 in 10.0 mi East 10.4 mph - N/A   Mostly Cloudy
1:53 AM 46.0 °F 44.8 °F 18.0 °F 33% 29.96 in 10.0 mi Variable 3.5 mph - N/A   Overcast
2:53 AM 46.0 °F 43.9 °F 19.9 °F 35% 29.94 in 10.0 mi ESE 4.6 mph - N/A   Overcast
3:53 AM 46.9 °F - 19.0 °F 33% 29.91 in 10.0 mi East 9.2 mph - N/A   Overcast
4:53 AM 48.0 °F - 18.0 °F 30% 29.88 in 10.0 mi SE 11.5 mph - N/A   Partly Cloudy
5:53 AM 48.0 °F - 18.0 °F 30% 29.86 in 10.0 mi SE 11.5 mph 20.7 mph N/A   Clear
6:53 AM 48.9 °F - 17.1 °F 28% 29.83 in 10.0 mi ESE 9.2 mph 20.7 mph N/A   Clear
7:53 AM 50.0 °F - 18.0 °F 28% 29.81 in 10.0 mi SE 10.4 mph 18.4 mph N/A   Clear
8:53 AM 54.0 °F - 21.0 °F 28% 29.78 in 10.0 mi ESE 9.2 mph 19.6 mph N/A   Clear
9:53 AM 60.1 °F - 24.1 °F 25% 29.74 in 10.0 mi ESE 11.5 mph 21.9 mph N/A   Clear
10:53 AM 63.0 °F - 25.0 °F 24% 29.71 in 10.0 mi East 9.2 mph - N/A   Clear
11:53 AM 66.0 °F - 26.1 °F 22% 29.70 in 10.0 mi Calm Calm - N/A   Clear
12:53 PM 59.0 °F - 33.1 °F 38% 29.68 in 10.0 mi North 8.1 mph - N/A   Mostly Cloudy
1:53 PM 57.9 °F - 32.0 °F 37% 29.66 in 10.0 mi NNW 6.9 mph - N/A   Overcast
2:53 PM 64.0 °F - 30.0 °F 28% 29.64 in 10.0 mi NNE 3.5 mph - N/A   Scattered Clouds
3:53 PM 61.0 °F - 36.0 °F 39% 29.64 in 10.0 mi WSW 6.9 mph - 0.00 in Rain Light Rain
4:53 PM 50.0 °F - 42.1 °F 74% 29.64 in 7.0 mi Variable 3.5 mph - 0.03 in Rain Light Rain
5:53 PM 55.0 °F - 48.9 °F 80% 29.61 in 10.0 mi South 9.2 mph 19.6 mph 0.02 in Rain Light Rain
6:53 PM 48.0 °F - 45.0 °F 89% 29.62 in 4.0 mi West 8.1 mph - 0.03 in Rain Light Rain
7:09 PM 46.0 °F 42.5 °F 44.1 °F 93% 29.64 in 4.0 mi West 6.9 mph - 0.02 in Rain Light Rain
7:17 PM 46.9 °F - 45.0 °F 93% 29.64 in 4.0 mi WSW 11.5 mph 17.3 mph 0.03 in Rain Light Rain
7:49 PM 44.6 °F 36.6 °F 42.8 °F 93% 29.65 in 5.0 mi WSW 19.6 mph 33.4 mph 0.07 in Rain Rain
7:53 PM 44.1 °F 35.9 °F 42.1 °F 93% 29.67 in 5.0 mi WSW 19.6 mph 33.4 mph 0.07 in Rain Light Rain
8:37 PM 39.0 °F 29.3 °F 37.9 °F 96% 29.71 in 1.8 mi WSW 19.6 mph 28.8 mph 0.03 in Rain Light Rain
8:50 PM 39.2 °F 31.2 °F 37.4 °F 93% 29.72 in 1.5 mi SW 13.8 mph 23.0 mph 0.03 in Rain Light Rain
8:53 PM 39.0 °F 31.8 °F 37.9 °F 96% 29.73 in 1.8 mi SW 11.5 mph 20.7 mph 0.03 in Rain Light Rain
9:03 PM 39.0 °F 31.4 °F 37.9 °F 96% 29.73 in 2.5 mi WSW 12.7 mph 20.7 mph 0.01 in Rain Light Rain
9:14 PM 39.0 °F 31.8 °F 37.9 °F 96% 29.74 in 3.0 mi WSW 11.5 mph - 0.01 in Rain Light Rain
9:37 PM 39.0 °F 30.3 °F 37.9 °F 96% 29.76 in 2.0 mi WSW 16.1 mph 23.0 mph 0.01 in   Overcast
9:51 PM 39.2 °F 30.2 °F 37.4 °F 93% 29.77 in 6.0 mi WSW 17.3 mph 23.0 mph 0.01 in   Overcast
9:53 PM 39.0 °F 30.6 °F 37.9 °F 96% 29.78 in 7.0 mi WSW 15.0 mph 23.0 mph 0.01 in   Overcast
10:39 PM 39.0 °F 30.3 °F 37.0 °F 93% 29.79 in 6.0 mi WSW 16.1 mph 26.5 mph N/A   Overcast
10:53 PM 37.9 °F 29.6 °F 37.0 °F 97% 29.81 in 6.0 mi WSW 13.8 mph 20.7 mph N/A   Overcast
11:10 PM 39.0 °F 31.8 °F 37.0 °F 93% 29.80 in 7.0 mi WSW 11.5 mph - N/A   Overcast
11:37 PM 39.0 °F 31.8 °F 37.9 °F 96% 29.80 in 6.0 mi WSW 11.5 mph - N/A   Overcast
11:49 PM 39.2 °F 31.6 °F 37.4 °F 93% 29.80 in 5.0 mi WSW 12.7 mph - N/A   Overcast
11:53 PM 39.0 °F 31.4 °F 37.9 °F 96% 29.81 in 5.0 mi WSW 12.7 mph - N/A   Overcast